When you browse on this site, cookies collect data to enhance your experience and personalize the content and advertising you see.
Visit our Privacy Policy to learn more. By continuing to use the site, you agree to this use of cookies and data.
  • En España
  • Lista de países
  • Para 7 días
  • Temperatura del agua
  • El tiempo en el mapa
  • Informadores
  • user-avatar
    Iniciar sesión

    Tiempo cada hora Kampot

    Hoy, 1 Abril, Miércoles

    Tiempo Temperatura Precipitaciones Viento Presión Humedad
    00:00 +30°C° 0 mm 3 mps 757 mmHg 73%
    01:00 +30°C° 0 mm 3 mps 756 mmHg 74%
    02:00 +30°C° 0 mm 3 mps 756 mmHg 75%
    03:00 +30°C° 0 mm 2 mps 756 mmHg 76%
    04:00 +30°C° 0 mm 2 mps 756 mmHg 76%
    05:00 +30°C° 0 mm 2 mps 756 mmHg 75%
    06:00 +30°C° 0 mm 2 mps 757 mmHg 74%
    07:00 +30°C° 0 mm 2 mps 758 mmHg 71%
    08:00 +32°C° 0 mm 2 mps 758 mmHg 63%
    09:00 +34°C° 0 mm 2 mps 758 mmHg 55%
    10:00 +36°C° 0 mm 3 mps 759 mmHg 48%
    11:00 +37°C° 0 mm 3 mps 758 mmHg 47%
    12:00 +37°C° 0 mm 4 mps 757 mmHg 46%
    13:00 +38°C° 0 mm 4 mps 756 mmHg 44%
    14:00 +37°C° 0 mm 4 mps 755 mmHg 44%
    15:00 +37°C° 0 mm 4 mps 755 mmHg 43%
    16:00 +37°C° 0 mm 4 mps 754 mmHg 42%
    17:00 +36°C° 0 mm 4 mps 755 mmHg 49%
    18:00 +34°C° 0 mm 3 mps 755 mmHg 56%
    19:00 +33°C° 0 mm 3 mps 755 mmHg 63%
    20:00 +31°C° 0 mm 3 mps 756 mmHg 65%
    21:00 +31°C° 0 mm 3 mps 756 mmHg 67%
    22:00 +31°C° 0 mm 3 mps 757 mmHg 69%
    23:00 +31°C° 0 mm 3 mps 757 mmHg 71%

    Mañana, 2 Abril, Jueves

    Tiempo Temperatura Precipitaciones Viento Presión Humedad
    00:00 +31°C° 0 mm 2 mps 757 mmHg 72%
    01:00 +31°C° 0 mm 2 mps 757 mmHg 73%
    02:00 +30°C° 0.2 mm 3 mps 757 mmHg 74%
    03:00 +29°C° 0.2 mm 3 mps 756 mmHg 76%
    04:00 +29°C° 0.2 mm 4 mps 756 mmHg 78%
    05:00 +29°C° 0 mm 4 mps 757 mmHg 78%
    06:00 +29°C° 0 mm 4 mps 757 mmHg 77%
    07:00 +29°C° 0 mm 4 mps 757 mmHg 77%
    08:00 +30°C° 0 mm 4 mps 758 mmHg 69%
    09:00 +33°C° 0 mm 4 mps 758 mmHg 61%
    10:00 +34°C° 0 mm 4 mps 758 mmHg 54%
    11:00 +36°C° 0 mm 4 mps 758 mmHg 49%
    12:00 +37°C° 0 mm 4 mps 757 mmHg 44%
    13:00 +39°C° 0 mm 3 mps 756 mmHg 39%
    14:00 +38°C° 0 mm 3 mps 756 mmHg 41%
    15:00 +37°C° 0 mm 2 mps 755 mmHg 44%
    16:00 +36°C° 0 mm 2 mps 755 mmHg 46%
    17:00 +35°C° 0 mm 2 mps 755 mmHg 49%
    18:00 +35°C° 0 mm 2 mps 755 mmHg 51%
    19:00 +34°C° 0 mm 3 mps 756 mmHg 53%
    20:00 +34°C° 0.1 mm 2 mps 756 mmHg 57%
    21:00 +32°C° 0.1 mm 2 mps 757 mmHg 60%
    22:00 +32°C° 0.1 mm 2 mps 758 mmHg 64%
    23:00 +31°C° 0.1 mm 3 mps 757 mmHg 67%

    Pasado mañana, 3 Abril, Viernes

    Tiempo Temperatura Precipitaciones Viento Presión Humedad
    00:00 +30°C° 0.1 mm 3 mps 757 mmHg 70%
    01:00 +29°C° 0.1 mm 4 mps 757 mmHg 73%
    02:00 +29°C° 0 mm 4 mps 757 mmHg 75%
    03:00 +28°C° 0 mm 4 mps 757 mmHg 78%
    04:00 +28°C° 0 mm 4 mps 757 mmHg 80%
    05:00 +28°C° 0 mm 4 mps 757 mmHg 78%
    06:00 +29°C° 0 mm 4 mps 758 mmHg 77%
    07:00 +29°C° 0 mm 4 mps 758 mmHg 75%
    08:00 +32°C° 0 mm 4 mps 758 mmHg 66%
    09:00 +34°C° 0 mm 5 mps 759 mmHg 56%
    10:00 +35°C° 0 mm 5 mps 759 mmHg 47%
    11:00 +36°C° 0 mm 4 mps 758 mmHg 44%
    12:00 +38°C° 0 mm 4 mps 757 mmHg 41%
    13:00 +39°C° 0 mm 3 mps 757 mmHg 38%
    14:00 +39°C° 0 mm 3 mps 756 mmHg 38%
    15:00 +39°C° 0 mm 3 mps 755 mmHg 38%
    16:00 +38°C° 0 mm 2 mps 754 mmHg 38%
    17:00 +37°C° 0 mm 3 mps 755 mmHg 47%
    18:00 +35°C° 0 mm 4 mps 755 mmHg 56%
    19:00 +33°C° 0 mm 5 mps 756 mmHg 66%
    20:00 +32°C° 0.2 mm 5 mps 757 mmHg 68%
    21:00 +32°C° 0.2 mm 4 mps 757 mmHg 71%
    22:00 +30°C° 0.2 mm 3 mps 758 mmHg 73%
    23:00 +30°C° 0.1 mm 3 mps 758 mmHg 73%

    4 Abril, Sábado

    Tiempo Temperatura Precipitaciones Viento Presión Humedad
    00:00 +30°C° 0.1 mm 3 mps 758 mmHg 73%
    01:00 +30°C° 0.1 mm 3 mps 758 mmHg 73%
    02:00 +29°C° 0.1 mm 3 mps 757 mmHg 76%
    03:00 +28°C° 0.1 mm 3 mps 757 mmHg 79%
    04:00 +28°C° 0.1 mm 3 mps 757 mmHg 82%
    05:00 +28°C° 0 mm 2 mps 757 mmHg 79%
    06:00 +29°C° 0 mm 2 mps 758 mmHg 75%
    07:00 +30°C° 0 mm 2 mps 758 mmHg 72%
    08:00 +31°C° 0 mm 2 mps 758 mmHg 66%
    09:00 +32°C° 0 mm 2 mps 759 mmHg 60%
    10:00 +35°C° 0 mm 2 mps 759 mmHg 54%
    11:00 +36°C° 0 mm 3 mps 758 mmHg 50%
    12:00 +37°C° 0 mm 3 mps 757 mmHg 47%
    13:00 +38°C° 0 mm 3 mps 757 mmHg 43%
    14:00 +37°C° 0 mm 3 mps 756 mmHg 47%
    15:00 +36°C° 0 mm 3 mps 756 mmHg 51%
    16:00 +35°C° 0 mm 3 mps 755 mmHg 54%
    17:00 +34°C° 0 mm 4 mps 756 mmHg 59%
    18:00 +34°C° 0 mm 4 mps 756 mmHg 63%
    19:00 +33°C° 0 mm 4 mps 756 mmHg 67%
    20:00 +33°C° 0.4 mm 4 mps 757 mmHg 68%
    21:00 +31°C° 0.4 mm 3 mps 757 mmHg 69%
    22:00 +31°C° 0.4 mm 3 mps 758 mmHg 70%
    23:00 +30°C° 0.1 mm 3 mps 758 mmHg 72%

    5 Abril, Domingo

    Tiempo Temperatura Precipitaciones Viento Presión Humedad
    00:00 +30°C° 0.1 mm 3 mps 758 mmHg 74%
    01:00 +30°C° 0.1 mm 4 mps 757 mmHg 76%
    02:00 +29°C° 0.2 mm 4 mps 757 mmHg 77%
    03:00 +29°C° 0.2 mm 4 mps 757 mmHg 77%
    04:00 +29°C° 0.2 mm 4 mps 757 mmHg 78%
    05:00 +29°C° 0 mm 4 mps 757 mmHg 76%
    06:00 +29°C° 0 mm 4 mps 758 mmHg 75%
    07:00 +29°C° 0 mm 4 mps 758 mmHg 73%
    08:00 +32°C° 0 mm 4 mps 759 mmHg 67%
    09:00 +33°C° 0 mm 4 mps 759 mmHg 61%
    10:00 +34°C° 0 mm 4 mps 759 mmHg 56%
    11:00 +35°C° 0 mm 4 mps 758 mmHg 53%
    12:00 +36°C° 0 mm 3 mps 758 mmHg 51%
    13:00 +36°C° 0 mm 2 mps 757 mmHg 49%
    14:00 +37°C° 0 mm 3 mps 756 mmHg 47%
    15:00 +37°C° 0 mm 3 mps 756 mmHg 46%
    16:00 +37°C° 0 mm 3 mps 755 mmHg 45%
    17:00 +36°C° 0.1 mm 4 mps 756 mmHg 52%
    18:00 +35°C° 0.1 mm 5 mps 756 mmHg 59%
    19:00 +33°C° 0.1 mm 6 mps 757 mmHg 66%
    20:00 +33°C° 0.5 mm 6 mps 757 mmHg 67%
    21:00 +32°C° 0.5 mm 6 mps 758 mmHg 68%
    22:00 +32°C° 0.5 mm 6 mps 758 mmHg 69%
    23:00 +30°C° 0.3 mm 6 mps 758 mmHg 72%

    6 Abril, Lunes

    Tiempo Temperatura Precipitaciones Viento Presión Humedad
    00:00 +30°C° 0.3 mm 5 mps 758 mmHg 75%
    01:00 +29°C° 0.3 mm 4 mps 758 mmHg 78%
    02:00 +29°C° 0.2 mm 4 mps 757 mmHg 79%
    03:00 +29°C° 0.2 mm 4 mps 757 mmHg 80%
    04:00 +28°C° 0.2 mm 4 mps 757 mmHg 81%
    05:00 +29°C° 0.2 mm 4 mps 757 mmHg 78%
    06:00 +29°C° 0.2 mm 4 mps 758 mmHg 76%
    07:00 +30°C° 0.2 mm 5 mps 758 mmHg 73%
    08:00 +32°C° 0.1 mm 5 mps 758 mmHg 66%
    09:00 +34°C° 0.1 mm 5 mps 758 mmHg 58%
    10:00 +36°C° 0.1 mm 5 mps 758 mmHg 50%
    11:00 +36°C° 0 mm 5 mps 758 mmHg 48%
    12:00 +37°C° 0 mm 4 mps 757 mmHg 45%
    13:00 +38°C° 0 mm 4 mps 756 mmHg 42%
    14:00 +38°C° 0 mm 3 mps 755 mmHg 43%
    15:00 +38°C° 0 mm 3 mps 755 mmHg 44%
    16:00 +37°C° 0 mm 2 mps 754 mmHg 45%
    17:00 +36°C° 0 mm 3 mps 754 mmHg 49%
    18:00 +35°C° 0 mm 3 mps 755 mmHg 53%
    19:00 +34°C° 0 mm 4 mps 755 mmHg 58%
    20:00 +33°C° 0.2 mm 4 mps 756 mmHg 62%
    21:00 +33°C° 0.2 mm 4 mps 756 mmHg 67%
    22:00 +32°C° 0.2 mm 4 mps 757 mmHg 72%
    23:00 +31°C° 0.4 mm 3 mps 757 mmHg 73%
    Mostrar más